| time (UTC) | temp F | wind direction | speed MPH | gust MPH | rain 1hr in | rain 24hr in | rain mn in | humidity % | barometer mb |
| 20260510084804 | 51 | 355 | 0.0 | 0.0 | 0.00 | 0.00 | 0.00 | 39 | 1017.2 |
| 20260510084303 | 51 | 355 | 0.0 | 0.0 | 0.00 | 0.00 | 0.00 | 41 | 1017.2 |
| 20260510083804 | 51 | 292 | 0.0 | 0.0 | 0.00 | 0.00 | 0.00 | 41 | 1017.2 |
| 20260510083304 | 51 | 292 | 0.0 | 0.0 | 0.00 | 0.00 | 0.00 | 42 | 1017.2 |
| 20260510082804 | 52 | 292 | 0.0 | 0.0 | 0.00 | 0.00 | 0.00 | 44 | 1017.1 |
| 20260510082306 | 52 | 292 | 0.0 | 0.0 | 0.00 | 0.00 | 0.00 | 43 | 1017.0 |
| 20260510081804 | 52 | 267 | 0.0 | 1.0 | 0.00 | 0.00 | 0.00 | 42 | 1017.0 |
| 20260510081304 | 52 | 194 | 0.0 | 0.0 | 0.00 | 0.00 | 0.00 | 42 | 1017.0 |
| 20260510080804 | 52 | 224 | 1.0 | 2.0 | 0.00 | 0.00 | 0.00 | 44 | 1017.0 |
| 20260510080304 | 53 | 203 | 1.0 | 2.0 | 0.00 | 0.00 | 0.00 | 41 | 1017.0 |
| 20260510075804 | 53 | 133 | 1.0 | 2.0 | 0.00 | 0.00 | 0.00 | 40 | 1017.0 |
| 20260510075306 | 53 | 133 | 1.0 | 2.0 | 0.00 | 0.00 | 0.00 | 38 | 1017.0 |
| 20260510074804 | 54 | 133 | 0.0 | 2.0 | 0.00 | 0.00 | 0.00 | 38 | 1017.0 |
| 20260510074304 | 54 | 133 | 1.0 | 2.0 | 0.00 | 0.00 | 0.00 | 37 | 1017.0 |
| 20260510073804 | 54 | 133 | 0.0 | 0.0 | 0.00 | 0.00 | 0.00 | 36 | 1017.0 |
| 20260510073304 | 54 | 133 | 0.0 | 2.0 | 0.00 | 0.00 | 0.00 | 36 | 1016.9 |
| 20260510072804 | 54 | 133 | 1.0 | 2.0 | 0.00 | 0.00 | 0.00 | 35 | 1016.9 |
| 20260510072306 | 55 | 155 | 2.0 | 3.0 | 0.00 | 0.00 | 0.00 | 36 | 1016.9 |
| 20260510071804 | 55 | 148 | 1.0 | 3.0 | 0.00 | 0.00 | 0.00 | 35 | 1016.9 |
| 20260510071304 | 56 | 96 | 0.0 | 2.0 | 0.00 | 0.00 | 0.00 | 33 | 1016.8 |
| 20260510070804 | 55 | 59 | 1.0 | 3.0 | 0.00 | 0.00 | 0.00 | 32 | 1016.8 |
| 20260510070304 | 55 | 72 | 2.0 | 5.0 | 0.00 | 0.00 | 0.00 | 34 | 1016.7 |
| 20260510065804 | 56 | 69 | 1.0 | 3.0 | 0.00 | 0.00 | 0.00 | 33 | 1016.4 |
| 20260510065306 | 56 | 317 | 1.0 | 3.0 | 0.00 | 0.00 | 0.00 | 33 | 1016.4 |
| 20260510064804 | 56 | 317 | 0.0 | 3.0 | 0.00 | 0.00 | 0.00 | 32 | 1016.4 |
| 20260510063804 | 56 | 5 | 2.0 | 3.0 | 0.00 | 0.00 | 0.00 | 32 | 1016.3 |
| 20260510063304 | 57 | 42 | 3.0 | 3.0 | 0.00 | 0.00 | 0.00 | 32 | 1016.3 |
| 20260510062804 | 57 | 66 | 3.0 | 3.0 | 0.00 | 0.00 | 0.00 | 32 | 1016.3 |
| 20260510062306 | 58 | 25 | 2.0 | 3.0 | 0.00 | 0.00 | 0.00 | 30 | 1016.2 |
| 20260510061804 | 57 | 9 | 2.0 | 3.0 | 0.00 | 0.00 | 0.00 | 30 | 1016.2 |
| 20260510061304 | 57 | 338 | 3.0 | 3.0 | 0.00 | 0.00 | 0.00 | 30 | 1016.1 |
| 20260510060804 | 57 | 330 | 3.0 | 3.0 | 0.00 | 0.00 | 0.00 | 30 | 1016.1 |
| 20260510060303 | 57 | 352 | 3.0 | 3.0 | 0.00 | 0.00 | 0.00 | 31 | 1016.0 |
| 20260510055804 | 58 | 24 | 3.0 | 5.0 | 0.00 | 0.00 | 0.00 | 31 | 1016.0 |
| 20260510055306 | 58 | 17 | 2.0 | 3.0 | 0.00 | 0.00 | 0.00 | 31 | 1016.0 |
| 20260510053804 | 59 | 3 | 2.0 | 3.0 | 0.00 | 0.00 | 0.00 | 28 | 1015.8 |
| 20260510053304 | 59 | 355 | 2.0 | 3.0 | 0.00 | 0.00 | 0.00 | 29 | 1015.8 |
| 20260510052804 | 59 | 16 | 1.0 | 3.0 | 0.00 | 0.00 | 0.00 | 28 | 1015.7 |
| 20260510052306 | 59 | 17 | 0.0 | 1.0 | 0.00 | 0.00 | 0.00 | 28 | 1015.7 |
| 20260510051803 | 59 | 5 | 2.0 | 3.0 | 0.00 | 0.00 | 0.00 | 28 | 1015.6 |
| 20260510051304 | 59 | 349 | 1.0 | 3.0 | 0.00 | 0.00 | 0.00 | 29 | 1015.5 |
| 20260510050804 | 59 | 5 | 0.0 | 0.0 | 0.00 | 0.00 | 0.00 | 29 | 1015.5 |
| 20260510045804 | 59 | 5 | 0.0 | 0.0 | 0.00 | 0.00 | 0.00 | 29 | 1015.5 |
| 20260510045306 | 59 | 5 | 0.0 | 0.0 | 0.00 | 0.00 | 0.00 | 29 | 1015.8 |
| 20260510044805 | 60 | 5 | 0.0 | 0.0 | 0.00 | 0.00 | 0.00 | 28 | 1015.7 |
| 20260510044305 | 60 | 5 | 0.0 | 1.0 | 0.00 | 0.00 | 0.00 | 29 | 1015.7 |
| 20260510043806 | 60 | 5 | 1.0 | 3.0 | 0.00 | 0.00 | 0.00 | 27 | 1015.6 |
| 20260510043305 | 60 | 42 | 0.0 | 2.0 | 0.00 | 0.00 | 0.00 | 28 | 1015.5 |
| 20260510042805 | 60 | 47 | 1.0 | 3.0 | 0.00 | 0.00 | 0.00 | 27 | 1015.5 |
| 20260510042307 | 61 | 73 | 2.0 | 3.0 | 0.00 | 0.00 | 0.00 | 27 | 1015.5 |
| 20260510041805 | 62 | 355 | 2.0 | 3.0 | 0.00 | 0.00 | 0.00 | 25 | 1015.4 |
| 20260510041305 | 62 | 324 | 2.0 | 3.0 | 0.00 | 0.00 | 0.00 | 24 | 1015.1 |
| 20260510040805 | 62 | 326 | 2.0 | 3.0 | 0.00 | 0.00 | 0.00 | 24 | 1015.1 |
| 20260510040305 | 62 | 305 | 1.0 | 2.0 | 0.00 | 0.00 | 0.00 | 24 | 1015.1 |
| 20260510035805 | 63 | 306 | 1.0 | 2.0 | 0.00 | 0.00 | 0.00 | 23 | 1015.1 |
| 20260510035306 | 63 | 320 | 0.0 | 1.0 | 0.00 | 0.00 | 0.00 | 22 | 1015.1 |
| 20260510034805 | 64 | 320 | 0.0 | 0.0 | 0.00 | 0.00 | 0.00 | 22 | 1015.1 |
| 20260510034305 | 64 | 320 | 0.0 | 0.0 | 0.00 | 0.00 | 0.00 | 21 | 1015.0 |
| 20260510033805 | 65 | 320 | 1.0 | 1.0 | 0.00 | 0.00 | 0.00 | 20 | 1014.9 |
| 20260510033305 | 65 | 320 | 2.0 | 3.0 | 0.00 | 0.00 | 0.00 | 20 | 1014.8 |
| 20260510032306 | 66 | 325 | 2.0 | 3.0 | 0.00 | 0.00 | 0.00 | 19 | 1014.7 |
| 20260510031306 | 67 | 321 | 2.0 | 3.0 | 0.00 | 0.00 | 0.00 | 18 | 1014.6 |
| 20260510030805 | 67 | 304 | 1.0 | 2.0 | 0.00 | 0.00 | 0.00 | 18 | 1014.5 |
| 20260510030305 | 68 | 304 | 1.0 | 2.0 | 0.00 | 0.00 | 0.00 | 18 | 1014.5 |
| 20260510025805 | 68 | 275 | 1.0 | 2.0 | 0.00 | 0.00 | 0.00 | 18 | 1014.3 |
| 20260510025306 | 68 | 265 | 1.0 | 3.0 | 0.00 | 0.00 | 0.00 | 17 | 1014.3 |
| 20260510024805 | 69 | 265 | 2.0 | 3.0 | 0.00 | 0.00 | 0.00 | 16 | 1014.3 |
| 20260510024305 | 69 | 296 | 1.0 | 3.0 | 0.00 | 0.00 | 0.00 | 16 | 1014.2 |
| 20260510023806 | 70 | 299 | 2.0 | 3.0 | 0.00 | 0.00 | 0.00 | 16 | 1014.2 |
| 20260510023305 | 70 | 274 | 2.0 | 3.0 | 0.00 | 0.00 | 0.00 | 15 | 1014.2 |
| 20260510022806 | 70 | 261 | 1.0 | 2.0 | 0.00 | 0.00 | 0.00 | 15 | 1014.1 |
| 20260510022306 | 71 | 312 | 0.0 | 2.0 | 0.00 | 0.00 | 0.00 | 14 | 1014.1 |
| 20260510021305 | 71 | 9 | 1.0 | 6.0 | 0.00 | 0.00 | 0.00 | 14 | 1014.0 |
| 20260510015805 | 72 | 26 | 3.0 | 8.0 | 0.00 | 0.00 | 0.00 | 14 | 1013.9 |
| 20260510014805 | 72 | 29 | 3.0 | 7.0 | 0.00 | 0.00 | 0.00 | 14 | 1014.1 |
| 20260510014305 | 72 | 24 | 6.0 | 10.0 | 0.00 | 0.00 | 0.00 | 13 | 1014.1 |
| 20260510013805 | 72 | 34 | 5.0 | 7.0 | 0.00 | 0.00 | 0.00 | 13 | 1014.1 |
| 20260510013306 | 72 | 351 | 3.0 | 6.0 | 0.00 | 0.00 | 0.00 | 14 | 1014.1 |
| 20260510012805 | 72 | 27 | 3.0 | 7.0 | 0.00 | 0.00 | 0.00 | 14 | 1014.1 |
| 20260510012307 | 72 | 25 | 6.0 | 9.0 | 0.00 | 0.00 | 0.00 | 13 | 1014.1 |
| 20260510011305 | 72 | 14 | 5.0 | 10.0 | 0.00 | 0.00 | 0.00 | 13 | 1014.1 |
| 20260510010806 | 72 | 31 | 6.0 | 10.0 | 0.00 | 0.00 | 0.00 | 13 | 1014.1 |
| 20260510010305 | 72 | 20 | 7.0 | 12.0 | 0.00 | 0.00 | 0.00 | 13 | 1014.1 |
| 20260510004805 | 73 | 15 | 8.0 | 12.0 | 0.00 | 0.00 | 0.00 | 13 | 1014.0 |
| 20260510004305 | 73 | 5 | 8.0 | 13.0 | 0.00 | 0.00 | 0.00 | 13 | 1014.0 |
| 20260510003805 | 73 | 21 | 12.0 | 17.0 | 0.00 | 0.00 | 0.00 | 12 | 1014.0 |
| 20260510002805 | 73 | 17 | 9.0 | 18.0 | 0.00 | 0.00 | 0.00 | 12 | 1014.1 |
| 20260510001805 | 72 | 4 | 9.0 | 13.0 | 0.00 | 0.00 | 0.00 | 13 | 1014.1 |
| 20260510001305 | 73 | 29 | 12.0 | 17.0 | 0.00 | 0.00 | 0.00 | 12 | 1014.1 |
| 20260510000805 | 73 | 11 | 10.0 | 20.0 | 0.00 | 0.00 | 0.00 | 12 | 1014.1 |
| 20260509235805 | 73 | 40 | 9.0 | 17.0 | 0.00 | 0.00 | 0.00 | 13 | 1014.1 |
| 20260509234805 | 73 | 14 | 10.0 | 16.0 | 0.00 | 0.00 | 0.00 | 12 | 1014.1 |
| 20260509234305 | 73 | 18 | 7.0 | 15.0 | 0.00 | 0.00 | 0.00 | 12 | 1014.1 |
| 20260509233805 | 73 | 12 | 9.0 | 15.0 | 0.00 | 0.00 | 0.00 | 13 | 1014.1 |
| 20260509233305 | 73 | 27 | 9.0 | 15.0 | 0.00 | 0.00 | 0.00 | 14 | 1014.3 |
| 20260509232805 | 73 | 3 | 12.0 | 20.0 | 0.00 | 0.00 | 0.00 | 14 | 1014.3 |
| 20260509232306 | 73 | 14 | 9.0 | 20.0 | 0.00 | 0.00 | 0.00 | 15 | 1014.3 |
| 20260509231806 | 73 | 352 | 12.0 | 21.0 | 0.00 | 0.00 | 0.00 | 15 | 1014.3 |
| 20260509231305 | 73 | 355 | 12.0 | 20.0 | 0.00 | 0.00 | 0.00 | 15 | 1014.2 |
| 20260509230805 | 73 | 3 | 12.0 | 20.0 | 0.00 | 0.00 | 0.00 | 16 | 1014.2 |
| 20260509230305 | 73 | 343 | 13.0 | 23.0 | 0.00 | 0.00 | 0.00 | 15 | 1014.2 |
| 20260509225805 | 73 | 26 | 13.0 | 20.0 | 0.00 | 0.00 | 0.00 | 15 | 1014.1 |
| 20260509225306 | 73 | 350 | 12.0 | 20.0 | 0.00 | 0.00 | 0.00 | 16 | 1013.9 |
| 20260509224805 | 73 | 3 | 12.0 | 20.0 | 0.00 | 0.00 | 0.00 | 15 | 1014.1 |
| 20260509224305 | 73 | 0 | 14.0 | 21.0 | 0.00 | 0.00 | 0.00 | 16 | 1014.1 |
| 20260509223305 | 73 | 355 | 11.0 | 18.0 | 0.00 | 0.00 | 0.00 | 16 | 1014.2 |
| 20260509221805 | 74 | 13 | 9.0 | 16.0 | 0.00 | 0.00 | 0.00 | 16 | 1014.4 |
| 20260509221305 | 73 | 313 | 10.0 | 17.0 | 0.00 | 0.00 | 0.00 | 16 | 1014.4 |
| 20260509220805 | 73 | 1 | 10.0 | 15.0 | 0.00 | 0.00 | 0.00 | 16 | 1014.4 |
| 20260509220305 | 73 | 334 | 10.0 | 14.0 | 0.00 | 0.00 | 0.00 | 17 | 1014.7 |
| 20260509215805 | 73 | 349 | 9.0 | 16.0 | 0.00 | 0.00 | 0.00 | 17 | 1014.7 |
| 20260509215306 | 73 | 352 | 9.0 | 14.0 | 0.00 | 0.00 | 0.00 | 17 | 1014.7 |
| 20260509214805 | 73 | 12 | 7.0 | 12.0 | 0.00 | 0.00 | 0.00 | 17 | 1014.7 |
| 20260509214305 | 73 | 344 | 9.0 | 14.0 | 0.00 | 0.00 | 0.00 | 17 | 1014.7 |
| 20260509213805 | 73 | 4 | 6.0 | 12.0 | 0.00 | 0.00 | 0.00 | 18 | 1014.7 |
| 20260509213305 | 72 | 342 | 8.0 | 12.0 | 0.00 | 0.00 | 0.00 | 17 | 1014.8 |
| 20260509212806 | 72 | 15 | 9.0 | 13.0 | 0.00 | 0.00 | 0.00 | 19 | 1014.7 |
| 20260509212306 | 72 | 0 | 10.0 | 14.0 | 0.00 | 0.00 | 0.00 | 18 | 1014.7 |
| 20260509211805 | 72 | 351 | 9.0 | 13.0 | 0.00 | 0.00 | 0.00 | 20 | 1014.9 |
| 20260509211305 | 72 | 16 | 7.0 | 17.0 | 0.00 | 0.00 | 0.00 | 19 | 1014.9 |
| 20260509210305 | 72 | 341 | 10.0 | 15.0 | 0.00 | 0.00 | 0.00 | 19 | 1014.9 |
| 20260509205307 | 72 | 0 | 6.0 | 13.0 | 0.00 | 0.00 | 0.00 | 19 | 1015.0 |
| 20260509204305 | 72 | 3 | 10.0 | 17.0 | 0.00 | 0.00 | 0.00 | 20 | 1015.2 |
| 20260509203805 | 72 | 350 | 8.0 | 15.0 | 0.00 | 0.00 | 0.00 | 20 | 1015.2 |
| 20260509203305 | 72 | 356 | 12.0 | 17.0 | 0.00 | 0.00 | 0.00 | 20 | 1015.2 |
| 20260509202805 | 72 | 356 | 10.0 | 15.0 | 0.00 | 0.00 | 0.00 | 20 | 1015.2 |
| 20260509202307 | 72 | 38 | 9.0 | 15.0 | 0.00 | 0.00 | 0.00 | 20 | 1015.2 |
| 20260509201805 | 72 | 21 | 9.0 | 16.0 | 0.00 | 0.00 | 0.00 | 19 | 1015.2 |
| 20260509201305 | 72 | 335 | 9.0 | 16.0 | 0.00 | 0.00 | 0.00 | 20 | 1015.2 |
| 20260509200805 | 72 | 32 | 4.0 | 12.0 | 0.00 | 0.00 | 0.00 | 19 | 1015.2 |
| 20260509195805 | 70 | 358 | 8.0 | 18.0 | 0.00 | 0.00 | 0.00 | 20 | 1015.4 |
| 20260509194805 | 71 | 4 | 10.0 | 17.0 | 0.00 | 0.00 | 0.00 | 19 | 1015.6 |
| 20260509193805 | 70 | 349 | 9.0 | 13.0 | 0.00 | 0.00 | 0.00 | 20 | 1015.6 |
| 20260509193305 | 70 | 326 | 9.0 | 13.0 | 0.00 | 0.00 | 0.00 | 19 | 1015.6 |
| 20260509192306 | 70 | 347 | 10.0 | 17.0 | 0.00 | 0.00 | 0.00 | 19 | 1015.6 |
| 20260509191805 | 70 | 0 | 9.0 | 15.0 | 0.00 | 0.00 | 0.00 | 20 | 1015.8 |
| 20260509191305 | 70 | 4 | 8.0 | 16.0 | 0.00 | 0.00 | 0.00 | 19 | 1015.8 |
| 20260509190805 | 70 | 40 | 10.0 | 15.0 | 0.00 | 0.00 | 0.00 | 19 | 1015.8 |
| 20260509190305 | 70 | 7 | 12.0 | 18.0 | 0.00 | 0.00 | 0.00 | 18 | 1015.8 |
| 20260509185805 | 70 | 18 | 11.0 | 17.0 | 0.00 | 0.00 | 0.00 | 19 | 1015.8 |
| 20260509185306 | 70 | 20 | 9.0 | 15.0 | 0.00 | 0.00 | 0.00 | 18 | 1016.0 |
| 20260509184805 | 70 | 347 | 10.0 | 17.0 | 0.00 | 0.00 | 0.00 | 19 | 1016.0 |
| 20260509184305 | 70 | 353 | 10.0 | 15.0 | 0.00 | 0.00 | 0.00 | 19 | 1016.0 |
| 20260509183805 | 69 | 2 | 8.0 | 18.0 | 0.00 | 0.00 | 0.00 | 20 | 1016.0 |
| 20260509183305 | 69 | 352 | 10.0 | 17.0 | 0.00 | 0.00 | 0.00 | 20 | 1016.0 |
| 20260509182805 | 69 | 356 | 9.0 | 17.0 | 0.00 | 0.00 | 0.00 | 20 | 1016.0 |
| 20260509182307 | 69 | 15 | 12.0 | 20.0 | 0.00 | 0.00 | 0.00 | 19 | 1016.0 |
| 20260509181305 | 69 | 348 | 10.0 | 15.0 | 0.00 | 0.00 | 0.00 | 20 | 1016.0 |
| 20260509180305 | 68 | 358 | 11.0 | 15.0 | 0.00 | 0.00 | 0.00 | 20 | 1015.9 |
| 20260509175805 | 68 | 4 | 12.0 | 18.0 | 0.00 | 0.00 | 0.00 | 20 | 1015.9 |
| 20260509175306 | 68 | 357 | 9.0 | 20.0 | 0.00 | 0.00 | 0.00 | 21 | 1015.9 |
| 20260509174805 | 69 | 353 | 13.0 | 20.0 | 0.00 | 0.00 | 0.00 | 21 | 1015.9 |
| 20260509174305 | 68 | 355 | 12.0 | 20.0 | 0.00 | 0.00 | 0.00 | 21 | 1015.9 |
| 20260509173306 | 68 | 8 | 12.0 | 17.0 | 0.00 | 0.00 | 0.00 | 20 | 1016.0 |
| 20260509172805 | 68 | 357 | 6.0 | 14.0 | 0.00 | 0.00 | 0.00 | 21 | 1016.0 |
| 20260509172306 | 68 | 354 | 9.0 | 16.0 | 0.00 | 0.00 | 0.00 | 22 | 1016.1 |
| 20260509171805 | 68 | 316 | 10.0 | 17.0 | 0.00 | 0.00 | 0.00 | 22 | 1016.1 |
| 20260509171305 | 67 | 328 | 6.0 | 15.0 | 0.00 | 0.00 | 0.00 | 24 | 1016.1 |
| 20260509170805 | 67 | 356 | 9.0 | 13.0 | 0.00 | 0.00 | 0.00 | 23 | 1016.0 |
| 20260509170305 | 68 | 0 | 10.0 | 15.0 | 0.00 | 0.00 | 0.00 | 22 | 1016.0 |
| 20260509164805 | 67 | 340 | 9.0 | 15.0 | 0.00 | 0.00 | 0.00 | 23 | 1016.1 |
| 20260509163806 | 67 | 319 | 11.0 | 17.0 | 0.00 | 0.00 | 0.00 | 24 | 1016.1 |
| 20260509162805 | 67 | 346 | 9.0 | 14.0 | 0.00 | 0.00 | 0.00 | 24 | 1016.2 |
| 20260509162307 | 67 | 354 | 8.0 | 12.0 | 0.00 | 0.00 | 0.00 | 24 | 1016.2 |
| 20260509161305 | 66 | 8 | 11.0 | 16.0 | 0.00 | 0.00 | 0.00 | 24 | 1016.2 |
| 20260509160804 | 66 | 13 | 7.0 | 14.0 | 0.00 | 0.00 | 0.00 | 24 | 1016.1 |
| 20260509160305 | 66 | 353 | 10.0 | 15.0 | 0.00 | 0.00 | 0.00 | 24 | 1016.1 |
| 20260509155805 | 66 | 338 | 9.0 | 14.0 | 0.00 | 0.00 | 0.00 | 25 | 1016.1 |
| 20260509155306 | 65 | 342 | 8.0 | 16.0 | 0.00 | 0.00 | 0.00 | 25 | 1016.1 |
| 20260509153805 | 65 | 6 | 6.0 | 10.0 | 0.00 | 0.00 | 0.00 | 27 | 1016.0 |
| 20260509153305 | 65 | 6 | 9.0 | 13.0 | 0.00 | 0.00 | 0.00 | 27 | 1016.0 |
| 20260509152805 | 64 | 350 | 8.0 | 13.0 | 0.00 | 0.00 | 0.00 | 27 | 1016.0 |
| 20260509152306 | 64 | 341 | 9.0 | 13.0 | 0.00 | 0.00 | 0.00 | 28 | 1015.9 |
| 20260509151804 | 64 | 4 | 8.0 | 17.0 | 0.00 | 0.00 | 0.00 | 28 | 1015.9 |
| 20260509151306 | 64 | 346 | 9.0 | 15.0 | 0.00 | 0.00 | 0.00 | 29 | 1015.9 |
| 20260509150805 | 64 | 336 | 7.0 | 12.0 | 0.00 | 0.00 | 0.00 | 30 | 1015.8 |
| 20260509150305 | 63 | 354 | 6.0 | 14.0 | 0.00 | 0.00 | 0.00 | 31 | 1015.7 |
| 20260509145805 | 63 | 356 | 9.0 | 13.0 | 0.00 | 0.00 | 0.00 | 31 | 1015.7 |
| 20260509145306 | 63 | 356 | 7.0 | 12.0 | 0.00 | 0.00 | 0.00 | 31 | 1015.7 |
| 20260509144805 | 63 | 7 | 8.0 | 13.0 | 0.00 | 0.00 | 0.00 | 31 | 1015.7 |
| 20260509144305 | 63 | 358 | 9.0 | 13.0 | 0.00 | 0.00 | 0.00 | 31 | 1015.7 |
| 20260509143805 | 62 | 5 | 7.0 | 12.0 | 0.00 | 0.00 | 0.00 | 32 | 1015.8 |
| 20260509143304 | 62 | 352 | 6.0 | 10.0 | 0.00 | 0.00 | 0.00 | 33 | 1015.7 |
| 20260509142805 | 62 | 358 | 5.0 | 10.0 | 0.00 | 0.00 | 0.00 | 34 | 1015.7 |
| 20260509142307 | 61 | 356 | 3.0 | 7.0 | 0.00 | 0.00 | 0.00 | 35 | 1015.7 |
| 20260509141305 | 61 | 17 | 3.0 | 6.0 | 0.00 | 0.00 | 0.00 | 36 | 1015.7 |
| 20260509140804 | 60 | 7 | 3.0 | 7.0 | 0.00 | 0.00 | 0.00 | 36 | 1015.7 |
| 20260509140304 | 60 | 9 | 4.0 | 8.0 | 0.00 | 0.00 | 0.00 | 36 | 1015.7 |
| 20260509135306 | 59 | 12 | 6.0 | 8.0 | 0.00 | 0.00 | 0.00 | 37 | 1015.7 |
| 20260509134805 | 59 | 348 | 3.0 | 8.0 | 0.00 | 0.00 | 0.00 | 37 | 1015.5 |
| 20260509134305 | 59 | 344 | 5.0 | 8.0 | 0.00 | 0.00 | 0.00 | 37 | 1015.5 |
| 20260509133804 | 58 | 358 | 6.0 | 10.0 | 0.00 | 0.00 | 0.00 | 37 | 1015.3 |
| 20260509133305 | 58 | 344 | 5.0 | 8.0 | 0.00 | 0.00 | 0.00 | 37 | 1015.3 |
| 20260509132804 | 58 | 357 | 4.0 | 8.0 | 0.00 | 0.00 | 0.00 | 38 | 1015.3 |
| 20260509132306 | 57 | 351 | 2.0 | 6.0 | 0.00 | 0.00 | 0.00 | 38 | 1015.2 |
| 20260509131804 | 57 | 317 | 2.0 | 5.0 | 0.00 | 0.00 | 0.00 | 37 | 1015.2 |
| 20260509131304 | 57 | 356 | 0.0 | 3.0 | 0.00 | 0.00 | 0.00 | 38 | 1015.2 |
| 20260509130804 | 57 | 323 | 2.0 | 6.0 | 0.00 | 0.00 | 0.00 | 38 | 1015.0 |
| 20260509130305 | 57 | 339 | 3.0 | 6.0 | 0.00 | 0.00 | 0.00 | 38 | 1015.0 |
| 20260509125805 | 57 | 345 | 1.0 | 3.0 | 0.00 | 0.00 | 0.00 | 38 | 1014.7 |
| 20260509125307 | 57 | 316 | 2.0 | 3.0 | 0.00 | 0.00 | 0.00 | 38 | 1014.7 |
| 20260509124805 | 57 | 5 | 0.0 | 3.0 | 0.00 | 0.00 | 0.00 | 37 | 1014.6 |
| 20260509123805 | 57 | 314 | 1.0 | 5.0 | 0.00 | 0.00 | 0.00 | 37 | 1014.4 |
| 20260509123305 | 57 | 326 | 4.0 | 6.0 | 0.00 | 0.00 | 0.00 | 37 | 1014.4 |
| 20260509122805 | 57 | 1 | 3.0 | 5.0 | 0.00 | 0.00 | 0.00 | 37 | 1014.1 |
| 20260509122306 | 57 | 349 | 5.0 | 9.0 | 0.00 | 0.00 | 0.00 | 37 | 1014.1 |
| 20260509121805 | 57 | 0 | 5.0 | 12.0 | 0.00 | 0.00 | 0.00 | 38 | 1014.1 |
| 20260509121305 | 57 | 332 | 2.0 | 9.0 | 0.00 | 0.00 | 0.00 | 38 | 1013.8 |
| 20260509120805 | 57 | 318 | 5.0 | 12.0 | 0.00 | 0.00 | 0.00 | 38 | 1013.8 |
| 20260509120305 | 57 | 319 | 4.0 | 12.0 | 0.00 | 0.00 | 0.00 | 37 | 1013.8 |
| 20260509115307 | 57 | 324 | 5.0 | 12.0 | 0.00 | 0.00 | 0.00 | 38 | 1013.8 |
| 20260509114805 | 57 | 332 | 5.0 | 10.0 | 0.00 | 0.00 | 0.00 | 38 | 1013.8 |
| 20260509114305 | 57 | 302 | 5.0 | 7.0 | 0.00 | 0.00 | 0.00 | 38 | 1013.8 |
| 20260509113804 | 57 | 286 | 5.0 | 7.0 | 0.00 | 0.00 | 0.00 | 39 | 1013.8 |
| 20260509113304 | 58 | 268 | 6.0 | 9.0 | 0.00 | 0.00 | 0.00 | 38 | 1013.8 |
| 20260509112307 | 59 | 251 | 5.0 | 7.0 | 0.00 | 0.00 | 0.00 | 37 | 1013.6 |
| 20260509111805 | 59 | 283 | 5.0 | 9.0 | 0.00 | 0.00 | 0.00 | 37 | 1013.6 |
| 20260509111305 | 59 | 279 | 3.0 | 7.0 | 0.00 | 0.00 | 0.00 | 36 | 1013.5 |
| 20260509110805 | 59 | 303 | 5.0 | 8.0 | 0.00 | 0.00 | 0.00 | 36 | 1013.5 |
| 20260509110305 | 60 | 321 | 4.0 | 8.0 | 0.00 | 0.00 | 0.00 | 35 | 1013.5 |
| 20260509105306 | 60 | 345 | 4.0 | 10.0 | 0.00 | 0.00 | 0.00 | 35 | 1013.4 |
| 20260509104805 | 60 | 355 | 8.0 | 13.0 | 0.00 | 0.00 | 0.00 | 35 | 1013.4 |
| 20260509104304 | 60 | 357 | 6.0 | 14.0 | 0.00 | 0.00 | 0.00 | 36 | 1013.3 |
| 20260509103304 | 60 | 350 | 7.0 | 12.0 | 0.00 | 0.00 | 0.00 | 36 | 1013.2 |
| 20260509102805 | 61 | 357 | 7.0 | 12.0 | 0.00 | 0.00 | 0.00 | 36 | 1013.2 |
| 20260509102306 | 61 | 0 | 6.0 | 13.0 | 0.00 | 0.00 | 0.00 | 37 | 1013.2 |
| 20260509101805 | 61 | 10 | 5.0 | 12.0 | 0.00 | 0.00 | 0.00 | 37 | 1013.2 |
| 20260509101305 | 61 | 340 | 7.0 | 14.0 | 0.00 | 0.00 | 0.00 | 36 | 1013.1 |
| 20260509100804 | 61 | 354 | 9.0 | 15.0 | 0.00 | 0.00 | 0.00 | 36 | 1013.0 |
| 20260509095805 | 61 | 351 | 10.0 | 17.0 | 0.00 | 0.00 | 0.00 | 36 | 1013.0 |
| 20260509094804 | 61 | 353 | 9.0 | 15.0 | 0.00 | 0.00 | 0.00 | 37 | 1012.4 |
| 20260509094304 | 61 | 355 | 7.0 | 14.0 | 0.00 | 0.00 | 0.00 | 37 | 1012.4 |
| 20260509093804 | 61 | 347 | 6.0 | 14.0 | 0.00 | 0.00 | 0.00 | 38 | 1012.4 |
| 20260509092805 | 61 | 357 | 9.0 | 14.0 | 0.00 | 0.00 | 0.00 | 38 | 1012.7 |
| 20260509091805 | 61 | 3 | 7.0 | 14.0 | 0.00 | 0.00 | 0.00 | 39 | 1012.4 |
| 20260509091304 | 61 | 356 | 8.0 | 12.0 | 0.00 | 0.00 | 0.00 | 39 | 1012.4 |
| 20260509085805 | 61 | 357 | 7.0 | 14.0 | 0.00 | 0.00 | 0.00 | 42 | 1012.3 |